| time (UTC) | temp F | wind direction | speed MPH | gust MPH | rain 1hr in | rain 24hr in | rain mn in | humidity % | barometer mb |
| 20260904153018 | 55 | 74 | 0.0 | 2.0 | 0.00 | 0.11 | 0.06 | 97 | 1012.7 |
| 20260904151558 | 55 | 74 | 0.0 | 1.0 | 0.00 | 0.11 | 0.05 | 97 | 1012.6 |
| 20260904150034 | 54 | 74 | 0.0 | 0.0 | 0.00 | 0.11 | 0.05 | 97 | 1012.5 |
| 20260904144520 | 54 | 74 | 0.0 | 0.0 | 0.00 | 0.11 | 0.05 | 96 | 1012.3 |
| 20260904143013 | 54 | 74 | 0.0 | 1.0 | 0.00 | 0.11 | 0.05 | 96 | 1012.3 |
| 20260904141544 | 54 | 74 | 0.0 | 0.0 | 0.01 | 0.11 | 0.05 | 96 | 1012.1 |
| 20260904140022 | 54 | 74 | 0.0 | 0.0 | 0.01 | 0.11 | 0.05 | 96 | 1011.9 |
| 20260904134535 | 54 | 74 | 0.0 | 0.0 | 0.02 | 0.12 | 0.05 | 96 | 1011.8 |
| 20260904133059 | 54 | 74 | 0.0 | 0.0 | 0.02 | 0.12 | 0.05 | 96 | 1011.6 |
| 20260904131602 | 54 | 74 | 0.0 | 0.0 | 0.01 | 0.11 | 0.04 | 96 | 1011.5 |
| 20260904131505 | 54 | 74 | 0.0 | 0.0 | 0.01 | 0.11 | 0.04 | 96 | 1011.5 |
| 20260904130039 | 54 | 74 | 0.0 | 0.0 | 0.01 | 0.11 | 0.04 | 96 | 1011.4 |
| 20260904124523 | 54 | 74 | 0.0 | 0.0 | 0.01 | 0.13 | 0.03 | 96 | 1011.4 |
| 20260904123033 | 54 | 74 | 0.0 | 0.0 | 0.01 | 0.13 | 0.03 | 96 | 1011.3 |
| 20260904121545 | 54 | 74 | 0.0 | 0.0 | 0.01 | 0.13 | 0.03 | 95 | 1011.2 |
| 20260904120048 | 54 | 74 | 0.0 | 2.0 | 0.01 | 0.13 | 0.03 | 96 | 1011.2 |
| 20260904114523 | 54 | 74 | 0.0 | 0.0 | 0.00 | 0.12 | 0.02 | 95 | 1011.2 |
| 20260904113037 | 54 | 74 | 0.0 | 0.0 | 0.00 | 0.12 | 0.02 | 95 | 1011.0 |
| 20260904111545 | 54 | 74 | 0.0 | 0.0 | 0.00 | 0.12 | 0.02 | 95 | 1010.9 |
| 20260904110031 | 54 | 74 | 0.0 | 0.0 | 0.00 | 0.12 | 0.02 | 95 | 1010.8 |
| 20260904104605 | 54 | 74 | 0.0 | 2.0 | 0.00 | 0.12 | 0.02 | 95 | 1010.7 |
| 20260904103029 | 54 | 74 | 1.0 | 3.0 | 0.00 | 0.12 | 0.02 | 95 | 1010.6 |
| 20260904101543 | 54 | 74 | 1.0 | 3.0 | 0.00 | 0.12 | 0.02 | 95 | 1010.6 |
| 20260904100023 | 54 | 70 | 0.0 | 0.0 | 0.00 | 0.12 | 0.02 | 94 | 1010.5 |
| 20260904094548 | 54 | 71 | 0.0 | 1.0 | 0.00 | 0.12 | 0.02 | 94 | 1010.4 |
| 20260904093047 | 54 | 70 | 1.0 | 3.0 | 0.00 | 0.12 | 0.02 | 94 | 1010.4 |
| 20260904091507 | 54 | 71 | 0.0 | 0.0 | 0.00 | 0.12 | 0.02 | 94 | 1010.5 |
| 20260904090047 | 54 | 70 | 0.0 | 2.0 | 0.00 | 0.12 | 0.02 | 94 | 1010.4 |
| 20260904084535 | 54 | 70 | 0.0 | 0.0 | 0.00 | 0.13 | 0.02 | 94 | 1010.5 |
| 20260904083021 | 54 | 70 | 0.0 | 0.0 | 0.00 | 0.13 | 0.02 | 93 | 1010.2 |
| 20260904081559 | 55 | 71 | 0.0 | 0.0 | 0.01 | 0.13 | 0.02 | 93 | 1010.3 |
| 20260904081504 | 55 | 71 | 0.0 | 0.0 | 0.01 | 0.13 | 0.02 | 93 | 1010.3 |
| 20260904080041 | 55 | 70 | 0.0 | 2.0 | 0.02 | 0.13 | 0.02 | 92 | 1010.3 |
| 20260904074528 | 55 | 70 | 1.0 | 4.0 | 0.03 | 0.13 | 0.02 | 92 | 1010.6 |
| 20260904073015 | 55 | 70 | 2.0 | 4.0 | 0.03 | 0.13 | 0.02 | 91 | 1010.5 |
| 20260904071556 | 55 | 77 | 2.0 | 5.0 | 0.02 | 0.12 | 0.01 | 91 | 1010.5 |
| 20260904070008 | 56 | 72 | 2.0 | 5.0 | 0.01 | 0.11 | 0.00 | 90 | 1010.4 |
| 20260904064545 | 56 | 64 | 3.0 | 5.0 | 0.00 | 0.10 | 0.11 | 89 | 1010.4 |
| 20260904063031 | 56 | 81 | 2.0 | 5.0 | 0.00 | 0.10 | 0.10 | 89 | 1010.4 |
| 20260904061511 | 56 | 81 | 2.0 | 4.0 | 0.00 | 0.10 | 0.10 | 89 | 1010.3 |
| 20260904060118 | 56 | 81 | 0.0 | 3.0 | 0.00 | 0.10 | 0.10 | 90 | 1010.2 |
| 20260904054538 | 56 | 81 | 0.0 | 2.0 | 0.00 | 0.10 | 0.10 | 90 | 1010.2 |
| 20260904053027 | 56 | 81 | 0.0 | 3.0 | 0.00 | 0.10 | 0.10 | 90 | 1010.2 |
| 20260904051540 | 56 | 81 | 0.0 | 4.0 | 0.00 | 0.10 | 0.10 | 91 | 1010.3 |
| 20260904050031 | 56 | 81 | 2.0 | 4.0 | 0.00 | 0.10 | 0.10 | 91 | 1010.3 |
| 20260904044545 | 56 | 68 | 2.0 | 4.0 | 0.00 | 0.10 | 0.10 | 91 | 1010.4 |
| 20260904043027 | 57 | 83 | 1.0 | 2.0 | 0.00 | 0.10 | 0.10 | 91 | 1010.2 |
| 20260904041512 | 57 | 83 | 0.0 | 2.0 | 0.00 | 0.10 | 0.10 | 91 | 1010.2 |
| 20260904040025 | 57 | 83 | 0.0 | 1.0 | 0.00 | 0.10 | 0.10 | 91 | 1010.2 |
| 20260904034509 | 57 | 83 | 0.0 | 0.0 | 0.01 | 0.10 | 0.10 | 90 | 1010.1 |
| 20260904033100 | 57 | 83 | 0.0 | 0.0 | 0.02 | 0.10 | 0.10 | 89 | 1010.0 |
| 20260904031532 | 57 | 83 | 0.0 | 0.0 | 0.04 | 0.10 | 0.10 | 88 | 1009.8 |
| 20260904030015 | 58 | 83 | 0.0 | 1.0 | 0.04 | 0.10 | 0.10 | 87 | 1009.8 |
| 20260904024611 | 58 | 83 | 0.0 | 2.0 | 0.03 | 0.09 | 0.10 | 86 | 1009.8 |
| 20260904023011 | 59 | 70 | 0.0 | 6.0 | 0.02 | 0.08 | 0.08 | 84 | 1009.9 |
| 20260904021532 | 61 | 176 | 2.0 | 9.0 | 0.00 | 0.06 | 0.06 | 77 | 1009.8 |
| 20260904020015 | 63 | 241 | 1.0 | 5.0 | 0.00 | 0.06 | 0.06 | 66 | 1009.6 |
| 20260904014609 | 64 | 246 | 1.0 | 4.0 | 0.00 | 0.06 | 0.06 | 63 | 1009.4 |
| 20260904013039 | 66 | 281 | 2.0 | 9.0 | 0.00 | 0.06 | 0.06 | 60 | 1009.3 |
| 20260904011534 | 65 | 287 | 3.0 | 10.0 | 0.00 | 0.06 | 0.06 | 62 | 1009.3 |
| 20260904010013 | 65 | 271 | 3.0 | 8.0 | 0.00 | 0.06 | 0.06 | 64 | 1009.3 |
| 20260904004551 | 64 | 281 | 3.0 | 11.0 | 0.00 | 0.11 | 0.06 | 65 | 1009.2 |
| 20260904003038 | 66 | 337 | 2.0 | 8.0 | 0.00 | 0.11 | 0.06 | 64 | 1009.1 |
| 20260904001527 | 65 | 230 | 2.0 | 10.0 | 0.00 | 0.11 | 0.06 | 68 | 1009.2 |
| 20260904000003 | 64 | 246 | 2.0 | 15.0 | 0.00 | 0.11 | 0.06 | 70 | 1009.3 |
| 20260903234538 | 64 | 258 | 4.0 | 12.0 | 0.00 | 0.11 | 0.06 | 69 | 1009.2 |
| 20260903233025 | 68 | 289 | 5.0 | 10.0 | 0.00 | 0.11 | 0.06 | 57 | 1009.1 |
| 20260903231537 | 68 | 226 | 4.0 | 10.0 | 0.00 | 0.11 | 0.06 | 54 | 1009.0 |
| 20260903230027 | 68 | 201 | 4.0 | 9.0 | 0.00 | 0.11 | 0.06 | 53 | 1008.9 |
| 20260903224506 | 68 | 293 | 3.0 | 8.0 | 0.00 | 0.16 | 0.06 | 52 | 1009.0 |
| 20260903223128 | 67 | 306 | 2.0 | 5.0 | 0.00 | 0.16 | 0.06 | 55 | 1009.0 |
| 20260903221536 | 67 | 235 | 4.0 | 11.0 | 0.00 | 0.16 | 0.06 | 55 | 1009.1 |
| 20260903220019 | 66 | 154 | 1.0 | 9.0 | 0.00 | 0.16 | 0.06 | 56 | 1009.2 |
| 20260903214601 | 66 | 281 | 3.0 | 13.0 | 0.00 | 0.19 | 0.06 | 56 | 1009.0 |
| 20260903213048 | 66 | 201 | 4.0 | 11.0 | 0.00 | 0.19 | 0.06 | 58 | 1009.2 |
| 20260903211527 | 65 | 214 | 4.0 | 9.0 | 0.00 | 0.19 | 0.06 | 60 | 1009.2 |
| 20260903210010 | 65 | 201 | 6.0 | 10.0 | 0.00 | 0.19 | 0.06 | 60 | 1009.1 |
| 20260903204553 | 64 | 199 | 3.0 | 18.0 | 0.00 | 0.22 | 0.06 | 63 | 1009.2 |
| 20260903203016 | 64 | 222 | 7.0 | 15.0 | 0.00 | 0.22 | 0.06 | 65 | 1009.1 |
| 20260903201523 | 64 | 227 | 3.0 | 9.0 | 0.00 | 0.22 | 0.06 | 66 | 1009.1 |
| 20260903200100 | 62 | 209 | 5.0 | 11.0 | 0.00 | 0.22 | 0.06 | 67 | 1009.2 |
| 20260903200004 | 62 | 207 | 4.0 | 11.0 | 0.00 | 0.22 | 0.06 | 67 | 1009.2 |
| 20260903194547 | 62 | 206 | 3.0 | 9.0 | 0.00 | 0.22 | 0.06 | 69 | 1009.2 |
| 20260903193024 | 62 | 193 | 1.0 | 6.0 | 0.00 | 0.22 | 0.06 | 71 | 1009.1 |
| 20260903191535 | 61 | 209 | 5.0 | 9.0 | 0.00 | 0.22 | 0.06 | 71 | 1009.2 |
| 20260903190049 | 61 | 213 | 3.0 | 9.0 | 0.00 | 0.22 | 0.06 | 71 | 1009.2 |
| 20260903184528 | 61 | 183 | 5.0 | 10.0 | 0.00 | 0.23 | 0.06 | 70 | 1009.2 |
| 20260903183010 | 61 | 234 | 4.0 | 8.0 | 0.00 | 0.23 | 0.06 | 73 | 1009.2 |
| 20260903181522 | 60 | 164 | 5.0 | 10.0 | 0.00 | 0.23 | 0.06 | 76 | 1009.0 |
| 20260903180059 | 60 | 197 | 2.0 | 5.0 | 0.00 | 0.23 | 0.06 | 79 | 1009.0 |
| 20260903174542 | 59 | 218 | 4.0 | 9.0 | 0.00 | 0.23 | 0.06 | 81 | 1009.0 |
| 20260903173050 | 58 | 189 | 3.0 | 7.0 | 0.00 | 0.23 | 0.06 | 84 | 1008.9 |
| 20260903171512 | 58 | 170 | 2.0 | 7.0 | 0.00 | 0.23 | 0.06 | 84 | 1008.8 |
| 20260903170020 | 58 | 168 | 1.0 | 5.0 | 0.00 | 0.23 | 0.06 | 85 | 1008.7 |
| 20260903164601 | 57 | 168 | 2.0 | 8.0 | 0.00 | 0.23 | 0.06 | 86 | 1008.7 |
| 20260903164503 | 57 | 185 | 1.0 | 8.0 | 0.00 | 0.23 | 0.06 | 87 | 1008.7 |
| 20260903163044 | 56 | 175 | 2.0 | 7.0 | 0.01 | 0.23 | 0.06 | 87 | 1008.8 |
| 20260903161556 | 56 | 179 | 1.0 | 8.0 | 0.01 | 0.23 | 0.06 | 87 | 1008.8 |
| 20260903160100 | 56 | 178 | 2.0 | 6.0 | 0.01 | 0.23 | 0.06 | 88 | 1008.7 |
| 20260903160002 | 56 | 174 | 2.0 | 6.0 | 0.01 | 0.23 | 0.06 | 89 | 1008.7 |
| 20260903154556 | 55 | 164 | 0.0 | 3.0 | 0.01 | 0.23 | 0.06 | 91 | 1008.7 |